Location: *
(17.3280°S, 114.7300°W)
Time: 03:29:52
(UTC+00:00)

X-37B - Pass Details

Date: 27 October 2020
Orbit: 384 x 390 km, 45.0° (Epoch: 26 November)

Event Time Altitude Azimuth Distance (km) Brightness Sun altitude
Rises 02:05:06 0° 305° (NW) 2,250 5.1 -6.0°
Reaches altitude 10° 02:07:11 10° 299° (WNW) 1,403 4.1 -6.5°
Maximum altitude 02:10:15 47° 223° (SW) 518 1.7 -7.2°
Drops below altitude 10° 02:13:21 10° 147° (SSE) 1,419 3.3 -7.9°
Sets 02:15:29 0° 141° (SE) 2,280 4.2 -8.4°
